This is the latest recevied weather packets stored in our database for station/object KC0CAU. If no packets are shown the sender has not sent any weather packets the latest 10 day(s).
| Time | Temp. | Humidity | Pressure | Rain* | Wind** | Luminosity | Snow |
|---|---|---|---|---|---|---|---|
| 1777723264 | 8.33° C | 54% | 1017.3 hPa | 0 mm | - | - | - |
| 1777722373 | 8.33° C | 54% | 1017.4 hPa | 0 mm | - | - | - |
| 1777721447 | 8.33° C | 53% | 1017.6 hPa | 0 mm | - | - | - |
| 1777720545 | 7.78° C | 55% | 1017.7 hPa | 0 mm | - | - | - |
| 1777719642 | 7.78° C | 55% | 1017.7 hPa | 0 mm | - | - | - |
| 1777718741 | 7.78° C | 56% | 1017.8 hPa | 0 mm | - | - | - |
| 1777717840 | 7.78° C | 55% | 1017.7 hPa | 0 mm | - | - | - |
| 1777716954 | 7.78° C | 55% | 1017.7 hPa | 0 mm | - | - | - |
| 1777716039 | 7.78° C | 55% | 1017.9 hPa | 0 mm | - | - | - |
| 1777715141 | 7.78° C | 56% | 1017.8 hPa | 0 mm | - | - | - |
| 1777714239 | 7.22° C | 56% | 1017.7 hPa | 0 mm | - | - | - |
| 1777713393 | 7.78° C | 56% | 1017.9 hPa | 0 mm | - | - | - |
| 1777712435 | 7.78° C | 56% | 1018.1 hPa | 0 mm | - | - | - |
| 1777711529 | 7.78° C | 56% | 1018.4 hPa | 0 mm | - | - | - |
| 1777710626 | 7.22° C | 57% | 1018.5 hPa | 0 mm | - | - | - |
| 1777709734 | 7.22° C | 58% | 1018.7 hPa | 0 mm | - | - | - |
| 1777708828 | 6.67° C | 59% | 1018.9 hPa | 0 mm | - | - | - |
| 1777707920 | 6.67° C | 59% | 1019 hPa | 0 mm | - | - | - |
| 1777707019 | 6.11° C | 60% | 1019.2 hPa | 0 mm | - | - | - |
| 1777706118 | 6.11° C | 60% | 1019.4 hPa | 0 mm | - | - | - |
| 1777705214 | 6.67° C | 59% | 1019.6 hPa | 0 mm | - | - | - |
| 1777704322 | 6.67° C | 58% | 1019.6 hPa | 0 mm | - | - | - |
| 1777703416 | 7.22° C | 57% | 1019.7 hPa | 0 mm | - | - | - |
| 1777702509 | 7.22° C | 56% | 1019.8 hPa | 0 mm | - | - | - |
| 1777701605 | 7.22° C | 56% | 1019.9 hPa | 0 mm | - | - | - |
* Rain latest hour (hover to see other rain measurements)
** Current wind speed in m/s (hover to see current wind gust speed)